| time (UTC) | temp F | wind direction | speed MPH | gust MPH | rain 1hr in | rain 24hr in | rain mn in | humidity % | barometer mb |
| 20260506230315 | 46 | 286 | 5.0 | 15.0 | 0.00 | 0.28 | 0.13 | 44 | 1022.2 |
| 20260506224828 | 47 | 222 | 9.0 | 23.0 | 0.00 | 0.28 | 0.13 | 41 | 1022.0 |
| 20260506223324 | 49 | 179 | 6.0 | 16.0 | 0.00 | 0.28 | 0.13 | 45 | 1021.7 |
| 20260506221817 | 48 | 252 | 7.0 | 14.0 | 0.00 | 0.29 | 0.13 | 43 | 1021.6 |
| 20260506220331 | 49 | 267 | 9.0 | 16.0 | 0.00 | 0.29 | 0.13 | 40 | 1021.3 |
| 20260506214824 | 48 | 271 | 7.0 | 16.0 | 0.00 | 0.29 | 0.13 | 42 | 1021.4 |
| 20260506213316 | 47 | 268 | 7.0 | 18.0 | 0.00 | 0.29 | 0.13 | 50 | 1021.5 |
| 20260506211836 | 45 | 199 | 2.0 | 13.0 | 0.00 | 0.29 | 0.13 | 61 | 1021.4 |
| 20260506210329 | 44 | 233 | 7.0 | 11.0 | 0.00 | 0.29 | 0.13 | 68 | 1021.6 |
| 20260506204823 | 42 | 191 | 5.0 | 10.0 | 0.00 | 0.29 | 0.13 | 76 | 1021.6 |
| 20260506203339 | 43 | 179 | 4.0 | 13.0 | 0.00 | 0.29 | 0.13 | 71 | 1021.7 |
| 20260506201832 | 48 | 201 | 9.0 | 22.0 | 0.00 | 0.29 | 0.13 | 50 | 1021.5 |
| 20260506200318 | 48 | 285 | 11.0 | 22.0 | 0.00 | 0.29 | 0.13 | 46 | 1020.7 |
| 20260506194839 | 47 | 226 | 5.0 | 14.0 | 0.00 | 0.29 | 0.13 | 52 | 1020.8 |
| 20260506193334 | 45 | 264 | 5.0 | 13.0 | 0.00 | 0.29 | 0.13 | 54 | 1020.8 |
| 20260506191846 | 45 | 239 | 7.0 | 16.0 | 0.01 | 0.29 | 0.13 | 57 | 1021.2 |
| 20260506190338 | 44 | 244 | 4.0 | 12.0 | 0.01 | 0.29 | 0.13 | 68 | 1021.3 |
| 20260506184831 | 44 | 257 | 4.0 | 14.0 | 0.01 | 0.29 | 0.13 | 63 | 1021.2 |
| 20260506183320 | 43 | 198 | 3.0 | 10.0 | 0.01 | 0.29 | 0.13 | 75 | 1021.3 |
| 20260506181813 | 41 | 235 | 3.0 | 10.0 | 0.01 | 0.28 | 0.12 | 75 | 1021.5 |
| 20260506180327 | 42 | 273 | 3.0 | 10.0 | 0.01 | 0.28 | 0.12 | 71 | 1021.7 |
| 20260506174842 | 44 | 272 | 6.0 | 11.0 | 0.02 | 0.28 | 0.12 | 68 | 1021.6 |
| 20260506173317 | 43 | 187 | 5.0 | 13.0 | 0.02 | 0.28 | 0.12 | 74 | 1021.4 |
| 20260506171830 | 42 | 255 | 2.0 | 15.0 | 0.02 | 0.27 | 0.11 | 75 | 1021.8 |
| 20260506170323 | 41 | 219 | 3.0 | 9.0 | 0.03 | 0.27 | 0.11 | 79 | 1021.6 |
| 20260506164816 | 40 | 237 | 4.0 | 8.0 | 0.03 | 0.26 | 0.10 | 76 | 1021.2 |
| 20260506163313 | 40 | 246 | 5.0 | 10.0 | 0.04 | 0.26 | 0.10 | 79 | 1021.2 |
| 20260506161825 | 40 | 222 | 3.0 | 10.0 | 0.05 | 0.25 | 0.09 | 80 | 1021.1 |
| 20260506160313 | 39 | 203 | 2.0 | 8.0 | 0.06 | 0.24 | 0.08 | 82 | 1020.9 |
| 20260506154832 | 38 | 206 | 2.0 | 9.0 | 0.06 | 0.23 | 0.07 | 83 | 1021.0 |
| 20260506153327 | 38 | 251 | 5.0 | 11.0 | 0.06 | 0.22 | 0.06 | 83 | 1020.8 |
| 20260506151819 | 36 | 247 | 2.0 | 7.0 | 0.04 | 0.20 | 0.04 | 86 | 1020.9 |
| 20260506150310 | 36 | 247 | 4.0 | 10.0 | 0.02 | 0.18 | 0.02 | 86 | 1020.9 |
| 20260506144832 | 35 | 248 | 1.0 | 7.0 | 0.01 | 0.17 | 0.01 | 88 | 1020.8 |
| 20260506143320 | 34 | 249 | 2.0 | 8.0 | 0.00 | 0.16 | 0.00 | 88 | 1020.7 |
| 20260506141813 | 34 | 249 | 3.0 | 9.0 | 0.00 | 0.16 | 0.00 | 89 | 1020.7 |
| 20260506140356 | 33 | 267 | 2.0 | 8.0 | 0.00 | 0.16 | 0.00 | 90 | 1020.7 |
| 20260506134823 | 33 | 267 | 0.0 | 6.0 | 0.00 | 0.16 | 0.00 | 91 | 1020.6 |
| 20260506133318 | 33 | 267 | 1.0 | 2.0 | 0.00 | 0.16 | 0.00 | 92 | 1020.5 |
| 20260506131858 | 32 | 268 | 0.0 | 4.0 | 0.00 | 0.16 | 0.00 | 92 | 1020.3 |
| 20260506130324 | 32 | 267 | 2.0 | 7.0 | 0.00 | 0.16 | 0.00 | 93 | 1020.0 |
| 20260506124816 | 32 | 268 | 0.0 | 3.0 | 0.00 | 0.16 | 0.00 | 93 | 1019.9 |
| 20260506123332 | 31 | 268 | 0.0 | 1.0 | 0.00 | 0.16 | 0.00 | 93 | 1019.7 |
| 20260506121825 | 31 | 268 | 0.0 | 0.0 | 0.00 | 0.16 | 0.00 | 93 | 1019.5 |
| 20260506120320 | 31 | 268 | 0.0 | 0.0 | 0.00 | 0.16 | 0.00 | 92 | 1019.5 |
| 20260506114813 | 31 | 268 | 0.0 | 0.0 | 0.00 | 0.16 | 0.00 | 92 | 1019.4 |
| 20260506113329 | 31 | 268 | 0.0 | 0.0 | 0.00 | 0.16 | 0.00 | 92 | 1019.2 |
| 20260506111822 | 31 | 268 | 0.0 | 1.0 | 0.00 | 0.16 | 0.00 | 92 | 1019.2 |
| 20260506110336 | 32 | 268 | 1.0 | 4.0 | 0.00 | 0.16 | 0.00 | 92 | 1019.2 |
| 20260506104830 | 32 | 268 | 0.0 | 2.0 | 0.00 | 0.16 | 0.00 | 91 | 1019.0 |
| 20260506103346 | 32 | 268 | 0.0 | 6.0 | 0.00 | 0.16 | 0.00 | 90 | 1019.1 |
| 20260506101837 | 32 | 268 | 1.0 | 4.0 | 0.00 | 0.16 | 0.00 | 90 | 1019.1 |
| 20260506100331 | 32 | 268 | 0.0 | 6.0 | 0.00 | 0.16 | 0.00 | 90 | 1019.0 |
| 20260506094818 | 33 | 268 | 0.0 | 6.0 | 0.00 | 0.16 | 0.00 | 91 | 1019.0 |
| 20260506093314 | 33 | 268 | 0.0 | 7.0 | 0.00 | 0.16 | 0.00 | 91 | 1019.0 |
| 20260506091812 | 32 | 272 | 3.0 | 9.0 | 0.00 | 0.16 | 0.00 | 91 | 1019.0 |
| 20260506090326 | 32 | 278 | 2.0 | 7.0 | 0.00 | 0.16 | 0.00 | 92 | 1018.8 |
| 20260506084820 | 32 | 261 | 1.0 | 4.0 | 0.00 | 0.16 | 0.00 | 92 | 1019.0 |
| 20260506083315 | 32 | 261 | 1.0 | 13.0 | 0.00 | 0.16 | 0.00 | 92 | 1019.1 |
| 20260506081828 | 32 | 259 | 2.0 | 8.0 | 0.00 | 0.16 | 0.00 | 92 | 1019.2 |
| 20260506080322 | 32 | 258 | 1.0 | 4.0 | 0.00 | 0.16 | 0.00 | 91 | 1019.5 |
| 20260506073353 | 32 | 258 | 0.0 | 3.0 | 0.00 | 0.16 | 0.00 | 91 | 1019.7 |
| 20260506071824 | 32 | 258 | 0.0 | 0.0 | 0.00 | 0.16 | 0.00 | 91 | 1019.7 |
| 20260506070319 | 33 | 258 | 1.0 | 4.0 | 0.00 | 0.16 | 0.00 | 91 | 1019.8 |
| 20260506061821 | 34 | 257 | 0.0 | 6.0 | 0.00 | 0.16 | 0.16 | 91 | 1019.8 |
| 20260506060335 | 35 | 257 | 1.0 | 4.0 | 0.00 | 0.16 | 0.16 | 92 | 1019.8 |
| 20260506050329 | 34 | 256 | 0.0 | 0.0 | 0.02 | 0.16 | 0.16 | 90 | 1019.7 |
| 20260506044822 | 35 | 256 | 0.0 | 0.0 | 0.02 | 0.16 | 0.16 | 90 | 1019.7 |
| 20260506043316 | 36 | 256 | 1.0 | 6.0 | 0.01 | 0.15 | 0.15 | 91 | 1019.5 |
| 20260506041829 | 37 | 262 | 3.0 | 12.0 | 0.01 | 0.15 | 0.15 | 92 | 1020.1 |
| 20260506040323 | 37 | 264 | 0.0 | 2.0 | 0.00 | 0.14 | 0.14 | 92 | 1019.7 |
| 20260506034816 | 37 | 264 | 1.0 | 4.0 | 0.00 | 0.14 | 0.14 | 92 | 1019.4 |
| 20260506033353 | 37 | 264 | 2.0 | 7.0 | 0.01 | 0.14 | 0.14 | 92 | 1019.6 |
| 20260506031823 | 37 | 264 | 0.0 | 3.0 | 0.01 | 0.14 | 0.14 | 91 | 1019.4 |
| 20260506030338 | 37 | 264 | 1.0 | 4.0 | 0.01 | 0.14 | 0.14 | 91 | 1018.7 |
| 20260506024830 | 37 | 272 | 1.0 | 3.0 | 0.03 | 0.14 | 0.14 | 91 | 1018.7 |
| 20260506023325 | 37 | 272 | 0.0 | 3.0 | 0.03 | 0.13 | 0.13 | 90 | 1018.4 |
| 20260506021838 | 37 | 272 | 1.0 | 6.0 | 0.03 | 0.13 | 0.13 | 89 | 1018.7 |
| 20260506020312 | 37 | 274 | 0.0 | 3.0 | 0.03 | 0.12 | 0.12 | 87 | 1018.7 |
| 20260506014826 | 38 | 275 | 2.0 | 9.0 | 0.02 | 0.11 | 0.11 | 87 | 1018.0 |
| 20260506013322 | 38 | 289 | 0.0 | 2.0 | 0.02 | 0.10 | 0.10 | 89 | 1018.0 |
| 20260506011814 | 38 | 289 | 0.0 | 0.0 | 0.03 | 0.10 | 0.10 | 88 | 1017.9 |
| 20260506010312 | 38 | 289 | 0.0 | 4.0 | 0.03 | 0.09 | 0.09 | 87 | 1017.5 |
| 20260506004827 | 38 | 291 | 1.0 | 12.0 | 0.04 | 0.09 | 0.09 | 88 | 1017.5 |
| 20260506003322 | 38 | 278 | 2.0 | 9.0 | 0.04 | 0.08 | 0.08 | 88 | 1017.6 |
| 20260506001816 | 39 | 243 | 3.0 | 10.0 | 0.03 | 0.07 | 0.07 | 89 | 1017.4 |
| 20260506000330 | 38 | 244 | 0.0 | 0.0 | 0.02 | 0.06 | 0.06 | 88 | 1017.1 |
| 20260505234824 | 38 | 244 | 0.0 | 0.0 | 0.02 | 0.05 | 0.05 | 87 | 1017.5 |
| 20260505233320 | 37 | 244 | 0.0 | 2.0 | 0.02 | 0.04 | 0.04 | 87 | 1017.9 |
| 20260505231832 | 37 | 244 | 1.0 | 10.0 | 0.04 | 0.04 | 0.04 | 82 | 1017.8 |